User: anonymous   Login
Location: Thompson
(55.7500°N, 97.8670°W)
Time: 21:15:16
(UTC-05:00)
Language:

Cosmos 1833 Rocket - Orbit

View from above orbital plane
View from above orbital plane
View from above satellite
View from above satellite

Ground track
Ground track

The orbit data is extracted from the following two-line orbital elements,

1 17590U 87027B   14295.75556506  .00000217  00000-0  13280-3 0  8116
2 17590 071.0051 029.1370 0006491 321.7281 038.3381 14.16652954426960
Epoch (UTC): 22 October 2014 18:08:00
Eccentricity: 0.0006491
inclination: 71.0051°
perigee height: 832 km
apogee height: 841 km
right ascension of ascending node: 29.1370°
argument of perigee: 321.7281°
revolutions per day: 14.16652954
mean anomaly at epoch: 38.3381°
orbit number at epoch: 42696

The dashed part of the orbit path shows where the satellite is in the earth's shadow,  

DLR